EW0139 Weather Reports


Display with metric or nautical units.
time (UTC)temp
F
wind
direction
speed
MPH
gust
MPH
rain 1hr
in
rain 24hr
in
rain mn
in
humidity
%
barometer
mb
20260902225313 90 115 19.0 19.0 0.00 0.00 0.00 30 1003.3
20260902223737 91 113 17.0 20.0 0.00 0.00 0.00 29 1003.5
20260902222243 89 114 16.0 18.0 0.00 0.00 0.00 31 1003.5
20260902220748 88 100 9.0 20.0 0.00 0.00 0.00 32 1003.9
20260902215253 87 115 15.0 20.0 0.00 0.00 0.00 32 1003.9
20260902213755 88 118 19.0 23.0 0.00 0.00 0.00 32 1004.2
20260902212305 88 102 15.0 20.0 0.00 0.00 0.00 33 1004.2
20260902210745 88 100 13.0 22.0 0.00 0.00 0.00 33 1004.3
20260902205246 87 88 14.0 18.0 0.00 0.00 0.00 34 1003.6
20260902203755 87 123 17.0 20.0 0.00 0.00 0.00 34 1003.7
20260902202240 89 113 9.0 21.0 0.00 0.00 0.00 33 1003.9
20260902200750 88 117 16.0 26.0 0.00 0.00 0.00 33 1004.1
20260902195249 89 92 20.0 28.0 0.00 0.00 0.00 35 1004.3
20260902193749 87 95 17.0 24.0 0.00 0.00 0.00 38 1004.5
20260902192255 87 125 15.0 26.0 0.00 0.00 0.00 37 1004.7
20260902190755 87 146 20.0 28.0 0.00 0.00 0.00 38 1004.7
20260902185238 86 112 13.0 25.0 0.00 0.00 0.00 39 1004.8
20260902183742 86 89 12.0 28.0 0.00 0.00 0.00 41 1005.1
20260902182242 85 92 19.0 26.0 0.00 0.00 0.00 42 1005.2
20260902180747 84 88 18.0 24.0 0.00 0.00 0.00 44 1005.6
20260902175248 81 79 14.0 25.0 0.00 0.00 0.00 46 1005.8
20260902173752 80 75 15.0 24.0 0.00 0.00 0.00 47 1006.1
20260902172320 79 69 16.0 27.0 0.00 0.00 0.00 47 1006.4
20260902170801 77 75 12.0 25.0 0.00 0.00 0.00 49 1006.5
20260902165249 77 104 15.0 19.0 0.00 0.00 0.00 48 1006.6
20260902163749 76 107 13.0 24.0 0.00 0.00 0.00 49 1006.8
20260902162248 75 95 12.0 22.0 0.00 0.00 0.00 50 1006.9
20260902160752 75 79 22.0 22.0 0.00 0.00 0.00 50 1007.0
20260902155252 73 95 15.0 22.0 0.00 0.00 0.00 52 1007.1
20260902153753 71 92 15.0 19.0 0.00 0.00 0.00 53 1007.3
20260902152258 71 84 11.0 14.0 0.00 0.00 0.00 54 1007.5
20260902150819 70 92 13.0 19.0 0.00 0.00 0.00 55 1007.9
20260902145305 69 100 14.0 20.0 0.00 0.00 0.00 56 1007.8
20260902143745 68 81 12.0 17.0 0.00 0.00 0.00 57 1007.8
20260902142245 67 74 10.0 22.0 0.00 0.00 0.00 57 1007.9
20260902140752 67 61 10.0 21.0 0.00 0.00 0.00 59 1007.9
20260902135253 65 46 9.0 18.0 0.00 0.00 0.00 60 1008.2
20260902133755 64 59 16.0 16.0 0.00 0.00 0.00 61 1008.2
20260902132258 63 42 6.0 15.0 0.00 0.00 0.00 62 1008.3
20260902130758 62 69 3.0 12.0 0.00 0.00 0.00 63 1008.4
20260902125241 62 67 5.0 13.0 0.00 0.00 0.00 62 1008.5
20260902123741 63 42 7.0 12.0 0.00 0.00 0.00 61 1008.6
20260902122242 63 41 3.0 10.0 0.00 0.00 0.00 60 1008.6
20260902120748 63 6 3.0 10.0 0.00 0.00 0.00 60 1008.7
20260902115249 63 48 3.0 5.0 0.00 0.00 0.00 60 1008.8
20260902113752 63 65 2.0 7.0 0.00 0.00 0.00 60 1009.0
20260902112237 63 30 0.0 7.0 0.00 0.00 0.00 60 1008.8
20260902110820 63 15 2.0 4.0 0.00 0.00 0.00 60 1009.0
20260902105245 63 19 0.0 5.0 0.00 0.00 0.00 59 1009.1
20260902103747 64 31 1.0 5.0 0.00 0.00 0.00 58 1008.9
20260902102249 64 29 4.0 4.0 0.00 0.00 0.00 57 1009.1
20260902100755 64 32 2.0 5.0 0.00 0.00 0.00 56 1009.0
20260902095314 64 44 3.0 6.0 0.00 0.00 0.00 56 1009.2
20260902093756 64 47 1.0 4.0 0.00 0.00 0.00 57 1009.5
20260902092241 64 42 3.0 6.0 0.00 0.00 0.00 56 1008.4
20260902090746 64 34 6.0 6.0 0.00 0.00 0.00 55 1008.5
20260902085254 65 43 2.0 4.0 0.00 0.00 0.00 54 1008.6
20260902083816 65 43 2.0 9.0 0.00 0.00 0.00 53 1008.6
20260902082256 66 71 3.0 10.0 0.00 0.00 0.00 52 1008.6
20260902080801 66 55 1.0 10.0 0.00 0.00 0.00 52 1008.6
20260902075245 66 60 1.0 7.0 0.00 0.00 0.00 51 1008.6
20260902073806 67 69 5.0 10.0 0.00 0.00 0.00 50 1008.6
20260902072255 67 96 9.0 10.0 0.00 0.00 0.00 49 1008.7
20260902070817 67 90 6.0 14.0 0.00 0.00 0.00 49 1008.7
20260902065318 68 92 12.0 15.0 0.00 0.00 0.00 48 1008.7
20260902063802 68 76 5.0 13.0 0.00 0.00 0.00 47 1008.8
20260902062306 69 69 10.0 16.0 0.00 0.00 0.00 45 1008.8
20260902060743 70 100 6.0 15.0 0.00 0.00 0.00 44 1008.7
20260902055248 70 107 7.0 13.0 0.00 0.00 0.00 43 1008.8
20260902053749 71 88 6.0 15.0 0.00 0.00 0.00 43 1008.8
20260902052314 71 58 14.0 15.0 0.00 0.00 0.00 42 1008.8
20260902050753 71 67 10.0 19.0 0.00 0.00 0.00 41 1008.8
20260902045253 71 42 8.0 17.0 0.00 0.00 0.00 39 1008.7
20260902043741 72 53 5.0 17.0 0.00 0.00 0.00 38 1008.7
20260902042241 72 90 9.0 19.0 0.00 0.00 0.00 38 1009.0
20260902040745 72 48 12.0 18.0 0.00 0.00 0.00 38 1008.9
20260902035251 72 44 10.0 14.0 0.00 0.00 0.00 38 1009.0
20260902033751 72 73 10.0 17.0 0.00 0.00 0.00 39 1009.3
20260902032252 72 48 8.0 16.0 0.00 0.00 0.00 38 1009.3
20260902030801 73 77 2.0 12.0 0.00 0.00 0.00 38 1009.4
20260902025241 73 107 6.0 12.0 0.00 0.00 0.00 37 1009.4
20260902023750 74 21 7.0 13.0 0.00 0.00 0.00 37 1009.2
20260902022251 74 38 11.0 13.0 0.00 0.00 0.00 35 1009.2
20260902020752 75 29 3.0 10.0 0.00 0.00 0.00 34 1009.2
20260902015241 77 80 6.0 10.0 0.00 0.00 0.00 33 1009.0
20260902013742 78 57 3.0 11.0 0.00 0.00 0.00 32 1008.9
20260902012249 79 57 9.0 12.0 0.00 0.00 0.00 31 1009.0
20260902010749 80 76 6.0 13.0 0.00 0.00 0.00 30 1009.1
20260902005253 81 63 3.0 16.0 0.00 0.00 0.00 29 1009.2
20260902003738 82 75 13.0 19.0 0.00 0.00 0.00 28 1009.2
20260902002306 83 46 11.0 18.0 0.00 0.00 0.00 28 1009.3
20260902000743 84 53 13.0 17.0 0.00 0.00 0.00 28 1009.2
20260901235248 84 75 14.0 22.0 0.00 0.00 0.00 27 1009.4
20260901233749 83 80 11.0 15.0 0.00 0.00 0.00 27 1009.5
20260901232255 84 97 10.0 20.0 0.00 0.00 0.00 26 1009.5
20260901230756 85 96 11.0 22.0 0.00 0.00 0.00 26 1009.6